Time,TemperatureF,DewpointF,PressureIn,WindDirection,WindDirectionDegrees,WindSpeedMPH,WindSpeedGustMPH,Humidity,HourlyPrecipIn,Conditions,Clouds,dailyrainin,SolarRadiationWatts/m^2,SoftwareType,DateUTC
2013-02-02 00:03:00,23.0,5.0,-100.00,North,10,0.0,0.0,46,0.00,,,0.00,0.000000,,2013-02-02 05:03:00,
2013-02-02 00:33:00,23.0,7.0,-100.00,NNE,18,0.0,0.0,50,0.00,,,0.00,0.000000,,2013-02-02 05:33:00,
2013-02-02 00:42:00,23.0,7.0,-100.00,NNE,18,0.0,0.0,50,0.00,,,0.00,0.000000,,2013-02-02 05:42:00,
2013-02-02 00:52:00,23.0,7.0,-100.00,NNE,18,0.0,0.0,50,0.00,,,0.00,0.000000,,2013-02-02 05:52:00,
2013-02-02 01:02:00,23.0,7.0,-100.00,NNE,18,0.0,0.0,50,0.00,,,0.00,0.000000,,2013-02-02 06:02:00,
2013-02-02 01:32:00,22.0,7.0,-100.00,WSW,246,0.0,0.0,52,0.00,,,0.00,0.000000,,2013-02-02 06:32:00,
2013-02-02 01:42:00,22.0,7.0,-100.00,WSW,246,0.0,0.0,52,0.00,,,0.00,0.000000,,2013-02-02 06:42:00,
2013-02-02 01:52:00,22.0,7.0,-100.00,WSW,246,0.0,0.0,52,0.00,,,0.00,0.000000,,2013-02-02 06:52:00,
2013-02-02 02:02:00,22.0,7.0,-100.00,WSW,246,0.0,0.0,52,0.00,,,0.00,0.000000,,2013-02-02 07:02:00,
2013-02-02 02:32:00,21.0,8.0,-100.00,NW,312,0.0,0.0,57,0.00,,,0.00,0.000000,,2013-02-02 07:32:00,
2013-02-02 02:42:00,21.0,8.0,-100.00,NW,312,0.0,0.0,57,0.00,,,0.00,0.000000,,2013-02-02 07:42:00,
2013-02-02 02:52:00,21.0,8.0,-100.00,NW,312,0.0,0.0,57,0.00,,,0.00,0.000000,,2013-02-02 07:52:00,
2013-02-02 03:01:00,21.0,8.0,-100.00,NW,312,0.0,0.0,57,0.00,,,0.00,0.000000,,2013-02-02 08:01:00,
2013-02-02 03:32:00,20.0,6.0,-100.00,NW,311,0.0,0.0,55,0.00,,,0.00,0.000000,,2013-02-02 08:32:00,
2013-02-02 03:42:00,20.0,6.0,-100.00,NW,311,0.0,0.0,55,0.00,,,0.00,0.000000,,2013-02-02 08:42:00,
2013-02-02 03:53:00,20.0,6.0,-100.00,NW,311,0.0,0.0,55,0.00,,,0.00,0.000000,,2013-02-02 08:53:00,
2013-02-02 04:01:00,20.0,6.0,-100.00,NW,311,0.0,0.0,55,0.00,,,0.00,0.000000,,2013-02-02 09:01:00,
2013-02-02 04:32:00,20.0,9.0,-100.00,East,101,0.0,0.0,63,0.00,,,0.00,0.000000,,2013-02-02 09:32:00,
2013-02-02 04:42:00,20.0,9.0,-100.00,East,101,0.0,0.0,63,0.00,,,0.00,0.000000,,2013-02-02 09:42:00,
2013-02-02 04:52:00,20.0,9.0,-100.00,East,101,0.0,0.0,63,0.00,,,0.00,0.000000,,2013-02-02 09:52:00,
2013-02-02 05:02:00,20.0,9.0,-100.00,East,101,0.0,0.0,63,0.00,,,0.00,0.000000,,2013-02-02 10:02:00,
2013-02-02 05:32:00,20.0,8.0,-100.00,South,170,0.0,0.0,59,0.00,,,0.00,0.000000,,2013-02-02 10:32:00,
2013-02-02 05:42:00,20.0,8.0,-100.00,South,170,0.0,0.0,59,0.00,,,0.00,0.000000,,2013-02-02 10:42:00,
2013-02-02 05:52:00,20.0,8.0,-100.00,South,170,0.0,0.0,59,0.00,,,0.00,0.000000,,2013-02-02 10:52:00,
2013-02-02 06:02:00,20.0,8.0,-100.00,South,170,0.0,0.0,59,0.00,,,0.00,0.000000,,2013-02-02 11:02:00,
2013-02-02 06:32:00,19.0,7.0,-100.00,East,93,0.0,0.0,59,0.00,,,0.00,0.000000,,2013-02-02 11:32:00,
2013-02-02 06:42:00,19.0,7.0,-100.00,East,93,0.0,0.0,59,0.00,,,0.00,0.000000,,2013-02-02 11:42:00,
2013-02-02 06:52:00,19.0,7.0,-100.00,East,93,0.0,0.0,59,0.00,,,0.00,0.000000,,2013-02-02 11:52:00,
2013-02-02 07:02:00,19.0,7.0,-100.00,East,93,0.0,0.0,59,0.00,,,0.00,0.000000,,2013-02-02 12:02:00,
2013-02-02 07:32:00,18.0,7.0,-100.00,SSE,153,0.0,0.0,61,0.00,,,0.00,0.000000,,2013-02-02 12:32:00,
2013-02-02 07:42:00,18.0,7.0,-100.00,SSE,153,0.0,0.0,61,0.00,,,0.00,0.000000,,2013-02-02 12:42:00,
2013-02-02 07:53:00,18.0,7.0,-100.00,SSE,153,0.0,0.0,61,0.00,,,0.00,0.000000,,2013-02-02 12:53:00,
2013-02-02 08:03:00,18.0,7.0,-100.00,SSE,153,0.0,0.0,61,0.00,,,0.00,0.000000,,2013-02-02 13:03:00,
2013-02-02 08:33:00,18.0,10.0,-100.00,NE,48,0.0,0.0,71,0.00,,,0.00,9.000000,,2013-02-02 13:33:00,
2013-02-02 08:42:00,18.0,10.0,-100.00,NE,48,0.0,0.0,71,0.00,,,0.00,9.000000,,2013-02-02 13:42:00,
2013-02-02 08:52:00,18.0,10.0,-100.00,NE,48,0.0,0.0,71,0.00,,,0.00,9.000000,,2013-02-02 13:52:00,
2013-02-02 09:03:00,18.0,10.0,-100.00,NE,48,0.0,0.0,71,0.00,,,0.00,9.000000,,2013-02-02 14:03:00,
2013-02-02 09:33:00,24.0,15.0,-100.00,NNW,330,0.0,0.0,67,0.00,,,0.00,113.000000,,2013-02-02 14:33:00,
2013-02-02 09:42:00,24.0,15.0,-100.00,NNW,330,0.0,0.0,67,0.00,,,0.00,113.000000,,2013-02-02 14:42:00,
2013-02-02 09:52:00,24.0,15.0,-100.00,NNW,330,0.0,0.0,67,0.00,,,0.00,113.000000,,2013-02-02 14:52:00,
2013-02-02 10:03:00,24.0,15.0,-100.00,NNW,330,0.0,0.0,67,0.00,,,0.00,113.000000,,2013-02-02 15:03:00,
2013-02-02 10:33:00,30.0,9.0,-100.00,SW,220,4.0,7.0,40,0.00,,,0.00,300.000000,,2013-02-02 15:33:00,
2013-02-02 10:42:00,30.0,9.0,-100.00,SW,220,4.0,7.0,40,0.00,,,0.00,300.000000,,2013-02-02 15:42:00,
2013-02-02 10:52:00,30.0,9.0,-100.00,SW,220,4.0,7.0,40,0.00,,,0.00,300.000000,,2013-02-02 15:52:00,
2013-02-02 11:03:00,30.0,9.0,-100.00,SW,220,4.0,7.0,40,0.00,,,0.00,300.000000,,2013-02-02 16:03:00,
2013-02-02 11:32:00,32.0,6.0,-100.00,SSW,213,4.0,8.0,33,0.00,,,0.00,436.000000,,2013-02-02 16:32:00,
2013-02-02 11:42:00,32.0,6.0,-100.00,SSW,213,4.0,8.0,33,0.00,,,0.00,436.000000,,2013-02-02 16:42:00,
2013-02-02 11:52:00,32.0,6.0,-100.00,SSW,213,4.0,8.0,33,0.00,,,0.00,436.000000,,2013-02-02 16:52:00,
2013-02-02 12:03:00,32.0,6.0,-100.00,SSW,213,4.0,8.0,33,0.00,,,0.00,436.000000,,2013-02-02 17:03:00,
2013-02-02 12:33:00,36.0,7.0,-100.00,SW,222,3.0,7.0,29,0.00,,,0.00,354.000000,,2013-02-02 17:33:00,
2013-02-02 12:42:00,36.0,7.0,-100.00,SW,222,3.0,7.0,29,0.00,,,0.00,354.000000,,2013-02-02 17:42:00,
2013-02-02 12:53:00,36.0,7.0,-100.00,SW,222,3.0,7.0,29,0.00,,,0.00,354.000000,,2013-02-02 17:53:00,
2013-02-02 13:03:00,36.0,7.0,-100.00,SW,222,3.0,7.0,29,0.00,,,0.00,354.000000,,2013-02-02 18:03:00,
2013-02-02 13:32:00,39.0,7.0,-100.00,WNW,296,2.0,6.0,26,0.00,,,0.00,507.000000,,2013-02-02 18:32:00,
2013-02-02 13:42:00,39.0,7.0,-100.00,WNW,296,2.0,6.0,26,0.00,,,0.00,507.000000,,2013-02-02 18:42:00,
2013-02-02 13:52:00,39.0,7.0,-100.00,WNW,296,2.0,6.0,26,0.00,,,0.00,507.000000,,2013-02-02 18:52:00,
2013-02-02 14:02:00,39.0,7.0,-100.00,WNW,296,2.0,6.0,26,0.00,,,0.00,507.000000,,2013-02-02 19:02:00,
2013-02-02 14:32:00,38.0,7.0,-100.00,South,175,3.0,7.0,27,0.00,,,0.00,249.000000,,2013-02-02 19:32:00,
2013-02-02 14:42:00,38.0,7.0,-100.00,South,175,3.0,7.0,27,0.00,,,0.00,249.000000,,2013-02-02 19:42:00,
2013-02-02 14:52:00,38.0,7.0,-100.00,South,175,3.0,7.0,27,0.00,,,0.00,249.000000,,2013-02-02 19:52:00,
2013-02-02 15:02:00,38.0,7.0,-100.00,South,175,3.0,7.0,27,0.00,,,0.00,249.000000,,2013-02-02 20:02:00,
2013-02-02 15:32:00,41.0,9.0,-100.00,SSE,149,6.0,11.0,26,0.00,,,0.00,316.000000,,2013-02-02 20:32:00,
2013-02-02 15:42:00,41.0,9.0,-100.00,SSE,149,6.0,11.0,26,0.00,,,0.00,316.000000,,2013-02-02 20:42:00,
2013-02-02 15:52:00,41.0,9.0,-100.00,SSE,149,6.0,11.0,26,0.00,,,0.00,316.000000,,2013-02-02 20:52:00,
2013-02-02 16:02:00,41.0,9.0,-100.00,SSE,149,6.0,11.0,26,0.00,,,0.00,316.000000,,2013-02-02 21:02:00,
2013-02-02 16:32:00,41.0,10.0,-100.00,ESE,107,3.0,9.0,27,0.00,,,0.00,193.000000,,2013-02-02 21:32:00,
2013-02-02 16:42:00,41.0,10.0,-100.00,ESE,107,3.0,9.0,27,0.00,,,0.00,193.000000,,2013-02-02 21:42:00,
2013-02-02 16:52:00,41.0,10.0,-100.00,ESE,107,3.0,9.0,27,0.00,,,0.00,193.000000,,2013-02-02 21:52:00,
2013-02-02 17:03:00,41.0,10.0,-100.00,ESE,107,3.0,9.0,27,0.00,,,0.00,193.000000,,2013-02-02 22:03:00,
2013-02-02 17:32:00,40.0,10.0,-100.00,ENE,71,2.0,6.0,28,0.00,,,0.00,97.000000,,2013-02-02 22:32:00,
2013-02-02 17:42:00,40.0,10.0,-100.00,ENE,71,2.0,6.0,28,0.00,,,0.00,97.000000,,2013-02-02 22:42:00,
2013-02-02 17:52:00,40.0,10.0,-100.00,ENE,71,2.0,6.0,28,0.00,,,0.00,97.000000,,2013-02-02 22:52:00,
2013-02-02 18:02:00,40.0,10.0,-100.00,ENE,71,2.0,6.0,28,0.00,,,0.00,97.000000,,2013-02-02 23:02:00,
2013-02-02 18:32:00,37.0,10.0,-100.00,NW,311,2.0,5.0,32,0.00,,,0.00,10.000000,,2013-02-02 23:32:00,
2013-02-02 18:42:00,37.0,10.0,-100.00,NW,311,2.0,5.0,32,0.00,,,0.00,10.000000,,2013-02-02 23:42:00,
2013-02-02 18:52:00,37.0,10.0,-100.00,NW,311,2.0,5.0,32,0.00,,,0.00,10.000000,,2013-02-02 23:52:00,
2013-02-02 19:02:00,37.0,10.0,-100.00,NW,311,2.0,5.0,32,0.00,,,0.00,10.000000,,2013-02-03 00:02:00,
2013-02-02 19:32:00,35.0,13.0,-100.00,WNW,294,1.0,3.0,39,0.00,,,0.00,0.000000,,2013-02-03 00:32:00,
2013-02-02 19:42:00,35.0,13.0,-100.00,WNW,294,1.0,3.0,39,0.00,,,0.00,0.000000,,2013-02-03 00:42:00,
2013-02-02 19:52:00,35.0,13.0,-100.00,WNW,294,1.0,3.0,39,0.00,,,0.00,0.000000,,2013-02-03 00:52:00,
2013-02-02 20:02:00,35.0,13.0,-100.00,WNW,294,1.0,3.0,39,0.00,,,0.00,0.000000,,2013-02-03 01:02:00,
2013-02-02 20:32:00,35.0,12.0,-100.00,NW,322,2.0,4.0,38,0.00,,,0.00,0.000000,,2013-02-03 01:32:00,
2013-02-02 21:01:00,35.0,12.0,-100.00,NW,322,2.0,4.0,38,0.00,,,0.00,0.000000,,2013-02-03 02:01:00,
2013-02-02 21:32:00,33.0,20.0,-100.00,NW,323,3.0,5.0,58,0.00,,,0.00,0.000000,,2013-02-03 02:32:00,
2013-02-02 21:42:00,33.0,20.0,-100.00,NW,323,3.0,5.0,58,0.00,,,0.00,0.000000,,2013-02-03 02:42:00,
2013-02-02 21:52:00,33.0,20.0,-100.00,NW,323,3.0,5.0,58,0.00,,,0.00,0.000000,,2013-02-03 02:52:00,
2013-02-02 22:02:00,33.0,20.0,-100.00,NW,323,3.0,5.0,58,0.00,,,0.00,0.000000,,2013-02-03 03:02:00,
2013-02-02 22:32:00,32.0,27.0,-100.00,NNW,337,4.0,6.0,81,0.00,,,0.00,0.000000,,2013-02-03 03:32:00,
2013-02-02 22:42:00,32.0,27.0,-100.00,NNW,337,4.0,6.0,81,0.00,,,0.00,0.000000,,2013-02-03 03:42:00,
2013-02-02 22:52:00,32.0,27.0,-100.00,NNW,337,4.0,6.0,81,0.00,,,0.00,0.000000,,2013-02-03 03:52:00,
2013-02-02 23:01:00,32.0,27.0,-100.00,NNW,337,4.0,6.0,81,0.00,,,0.00,0.000000,,2013-02-03 04:01:00,
2013-02-02 23:32:00,32.0,29.0,-100.00,NW,316,3.0,6.0,87,0.00,,,0.00,0.000000,,2013-02-03 04:32:00,
2013-02-02 23:42:00,32.0,29.0,-100.00,NW,316,3.0,6.0,87,0.00,,,0.00,0.000000,,2013-02-03 04:42:00,
2013-02-02 23:52:00,32.0,29.0,-100.00,NW,316,3.0,6.0,87,0.00,,,0.00,0.000000,,2013-02-03 04:52:00,